Wind_Speed
7 16 21 24 24 25 27 31 29 28 28 26 24 20 19 22 22 23 21 19 19 18 16 14 12 9 12 12 11 10 9 8 7
9 14 18 21 23 25 29 31 31 28 29 27 25 20 19 21 23 24 23 21 20 18 16 14 12 10 10 12 9 8 8 7 6
12 13 17 21 22 23 27 29 29 29 29 27 24 23 19 20 21 23 22 22 21 20 18 15 13 11 11 10 9 9 8 8 7
15 18 18 20 23 26 25 26 28 28 28 27 25 23 19 20 20 21 23 24 21 21 18 17 15 12 11 10 9 9 9 9 8
13 17 18 20 22 21 25 28 29 29 28 27 25 23 20 20 18 20 23 25 23 22 21 18 16 13 13 10 8 9 9 9 8
12 13 15 18 21 24 25 27 29 28 29 26 23 24 20 19 18 19 21 23 23 24 24 20 17 14 15 11 9 9 10 9 6
10 11 9 15 21 24 26 27 29 30 29 27 25 24 20 19 19 19 20 21 22 21 23 22 17 14 15 10 8 8 9 8 7
12 14 13 15 18 24 26 27 28 26 28 26 28 24 20 18 18 20 20 20 22 20 20 17 16 15 15 11 9 7 9 8 7
13 17 17 18 21 22 26 27 27 25 28 29 27 25 21 18 20 21 20 20 23 21 19 16 16 17 15 11 9 9 9 9 7
12 15 16 20 22 25 27 28 27 28 28 29 26 23 19 18 21 23 21 23 23 21 18 18 18 15 15 12 10 11 10 8 8
12 15 17 18 20 26 28 29 26 27 29 29 24 21 19 20 21 23 26 25 24 21 20 18 17 15 13 11 11 12 11 9 8
18 16 18 16 21 26 30 33 29 32 29 27 26 23 21 22 23 26 27 26 24 23 21 18 16 15 13 11 13 12 11 10 9
15 11 14 14 19 25 30 34 33 31 30 31 29 27 23 24 25 26 27 26 26 24 21 19 17 16 13 12 12 11 10 10 10
5 5 6 13 20 27 28 32 36 35 33 34 29 26 25 25 26 24 25 24 23 22 21 20 17 15 13 12 12 12 14 13 12
6 7 9 14 19 22 24 28 33 35 37 32 30 30 27 27 28 26 26 26 23 21 19 18 17 17 16 15 14 15 17 15 14
9 10 10 14 16 19 24 25 28 32 30 34 30 31 30 28 28 27 26 27 27 25 24 22 22 21 20 18 17 17 19 18 17
15 14 16 16 20 21 23 27 28 29 31 31 32 31 30 31 30 29 29 29 29 28 28 27 25 24 22 20 19 19 20 22 21
11 15 14 18 19 20 20 22 24 26 30 26 29 30 33 32 32 33 31 29 29 28 27 26 25 24 22 20 19 18 18 19 19
3 9 16 16 19 20 20 22 23 25 27 26 25 27 29 32 31 32 33 31 30 29 28 25 24 24 21 20 17 14 12 14 16
7 5 2 8 15 15 15 15 17 22 24 23 25 25 26 28 30 30 31 32 32 30 27 27 26 25 24 22 19 16 14 15 16
Wind_Direction
244 213 213 213 215 215 216 219 223 222 220 220 222 226 230 224 220 222 221 219 213 214 215 216 222 217 208 214 230 249 249 265 266
232 211 211 211 213 217 224 224 225 223 221 220 222 224 230 224 219 220 218 213 213 213 207 205 208 211 212 208 222 238 253 258 250
230 222 213 211 213 214 221 226 225 223 221 223 223 221 226 225 222 220 217 214 213 205 205 207 209 206 205 208 230 233 249 243 231
227 219 217 212 214 219 220 221 223 224 220 219 221 222 224 222 222 219 216 216 209 200 202 206 207 208 202 206 222 235 240 238 219
240 222 219 218 216 211 211 218 219 220 218 216 219 214 219 219 219 216 216 214 211 202 203 206 207 216 216 225 223 231 230 215 243
235 216 221 217 206 208 213 213 214 215 213 212 216 211 212 215 214 212 213 212 210 207 208 210 212 220 219 229 221 220 215 239 234
227 210 209 196 195 202 214 214 215 212 211 209 208 205 208 215 209 211 206 203 201 206 206 207 213 217 206 201 209 228 231 224 220
223 214 210 202 203 204 203 207 210 210 208 208 203 199 207 212 207 204 199 197 199 199 199 202 208 202 191 199 223 238 228 210 216
229 222 215 206 212 210 206 205 204 200 198 203 199 200 208 206 202 200 197 195 190 191 190 195 193 189 197 211 232 228 206 210 208
239 226 214 207 214 211 209 200 198 193 197 198 197 202 208 208 200 196 197 190 185 187 186 187 188 191 207 222 227 212 205 199 201
252 240 218 223 220 209 203 200 194 190 195 196 196 206 212 203 193 190 190 189 189 192 191 191 205 213 207 217 211 205 197 198 198
257 243 235 244 229 208 196 196 189 190 194 195 198 202 207 199 185 184 190 193 195 195 198 204 210 213 213 218 209 197 191 203 197
261 237 238 223 199 190 193 194 192 195 193 201 201 201 198 200 190 191 197 199 204 203 204 210 215 214 222 211 208 198 208 213 201
250 208 206 196 189 187 180 194 198 201 200 209 204 202 200 203 200 196 204 210 208 212 214 217 214 217 225 221 212 212 220 218 212
250 207 185 194 187 192 187 195 199 203 207 211 211 207 205 206 208 202 206 213 216 218 226 231 228 226 228 226 223 222 224 223 220
247 220 209 203 202 202 196 200 206 206 208 210 214 213 212 211 215 215 216 215 218 219 222 229 230 231 233 232 230 231 228 227 224
243 226 212 215 212 206 211 213 215 217 215 213 214 212 218 214 214 219 222 223 227 229 231 227 226 227 231 232 233 234 230 228 225
239 211 199 206 217 220 222 226 230 228 224 217 220 218 215 220 218 219 224 228 233 234 236 236 237 236 233 238 244 244 240 235 233
317 237 226 217 218 219 223 229 229 226 226 221 222 224 220 218 222 223 223 227 232 234 238 240 241 244 245 249 244 241 234 234 235
66 80 137 216 224 228 231 226 221 222 219 218 221 221 226 223 220 222 224 225 227 231 233 237 238 238 238 239 243 232 226 228 228
Height
1483 1486 1492 1497 1502 1507 1512 1517 1522 1526 1531 1535 1539 1541 1544 1547 1550 1553 1555 1557 1560 1563 1565 1567 1568 1569 1571 1574 1577 1579 1580 1580 1581
1481 1484 1488 1493 1498 1503 1507 1512 1516 1521 1526 1530 1534 1537 1540 1543 1546 1549 1551 1554 1557 1560 1562 1564 1566 1568 1569 1572 1574 1576 1578 1578 1578
1479 1483 1486 1490 1494 1499 1503 1508 1513 1517 1522 1526 1530 1533 1536 1539 1542 1545 1548 1550 1553 1556 1559 1561 1564 1566 1568 1570 1569 1574 1575 1576 1577
1476 1478 1482 1485 1488 1494 1499 1503 1507 1513 1517 1522 1525 1529 1533 1535 1538 1541 1543 1546 1549 1553 1556 1559 1562 1565 1567 1568 1569 1570 1572 1573 1575
1471 1473 1476 1480 1483 1488 1493 1497 1501 1506 1513 1517 1521 1525 1529 1532 1535 1537 1539 1543 1546 1550 1554 1556 1559 1562 1564 1566 1566 1567 1569 1571 1572
1467 1469 1471 1475 1479 1482 1487 1491 1497 1502 1507 1513 1518 1522 1525 1527 1530 1533 1536 1540 1543 1546 1550 1553 1556 1559 1562 1563 1564 1566 1568 1569 1570
1466 1467 1468 1472 1474 1477 1482 1488 1493 1498 1504 1509 1513 1518 1521 1523 1526 1530 1533 1537 1540 1544 1547 1550 1554 1557 1559 1561 1562 1564 1566 1567 1567
1462 1463 1465 1468 1472 1474 1478 1484 1489 1495 1501 1506 1509 1514 1518 1520 1524 1528 1531 1534 1538 1542 1544 1548 1551 1554 1556 1558 1560 1561 1563 1564 1566
1455 1459 1461 1464 1467 1472 1475 1479 1485 1492 1498 1502 1506 1510 1515 1518 1521 1526 1529 1532 1536 1540 1543 1546 1549 1551 1554 1557 1558 1559 1561 1563 1564
1452 1454 1458 1459 1462 1467 1472 1477 1482 1488 1494 1500 1503 1508 1513 1515 1518 1523 1527 1531 1534 1538 1541 1545 1548 1550 1553 1554 1556 1558 1559 1561 1562
1446 1448 1452 1456 1458 1463 1468 1475 1481 1488 1492 1496 1502 1506 1510 1512 1515 1520 1525 1529 1534 1537 1540 1543 1546 1549 1551 1552 1554 1555 1557 1559 1560
1440 1443 1446 1450 1453 1458 1464 1471 1479 1483 1488 1495 1499 1503 1507 1511 1513 1517 1523 1527 1531 1535 1538 1541 1544 1547 1550 1550 1552 1553 1555 1557 1559
1438 1439 1442 1444 1448 1454 1460 1467 1475 1480 1485 1490 1495 1499 1503 1509 1512 1515 1521 1526 1529 1533 1537 1540 1542 1544 1547 1549 1550 1551 1554 1556 1558
1439 1438 1441 1444 1447 1450 1455 1463 1471 1477 1482 1486 1492 1497 1501 1506 1510 1513 1520 1525 1528 1531 1535 1538 1540 1542 1544 1545 1546 1549 1553 1555 1557
1440 1440 1441 1444 1446 1450 1455 1460 1466 1472 1477 1483 1489 1494 1498 1502 1507 1512 1516 1522 1526 1529 1531 1533 1536 1539 1541 1543 1544 1547 1550 1552 1555
1441 1441 1442 1444 1446 1449 1453 1458 1462 1467 1472 1479 1484 1490 1495 1499 1504 1508 1512 1517 1522 1526 1529 1531 1533 1535 1537 1539 1541 1543 1546 1548 1551
1438 1440 1441 1442 1445 1446 1449 1453 1458 1464 1469 1474 1480 1485 1490 1496 1499 1504 1508 1512 1516 1520 1523 1526 1528 1530 1532 1534 1536 1538 1540 1543 1545
1438 1438 1439 1440 1443 1444 1447 1451 1455 1460 1464 1469 1475 1480 1486 1490 1495 1499 1503 1507 1510 1514 1517 1520 1523 1525 1528 1529 1532 1534 1536 1537 1539
1439 1438 1438 1439 1441 1441 1444 1446 1450 1454 1458 1463 1469 1474 1479 1484 1488 1492 1497 1501 1505 1509 1512 1515 1518 1521 1524 1526 1528 1529 1530 1532 1535
1441 1438 1436 1437 1439 1441 1443 1445 1447 1449 1452 1456 1462 1468 1472 1477 1482 1485 1489 1493 1497 1500 1505 1508 1512 1515 1518 1521 1522 1524 1526 1527 1529